Location: Lussas
(44.6119°N, 4.4726°E)
Time: 15:35:27
(UTC+00:00)

ATLAS CENTAUR R/B - Pass Details

Date: 26 November 2020
Orbit: 477 x 668 km, 64.7° (Epoch: 25 January)

Event Time Altitude Azimuth Distance (km) Brightness Sun altitude
Exits shadow 04:24:13 11° 21° (NNE) 1,627 3.9 -26.0°
Maximum altitude 04:25:06 12° 35° (NE) 1,590 4.0 -25.9°
Drops below altitude 10° 04:26:32 10° 57° (ENE) 1,709 4.5 -25.6°
Sets 04:30:04 0° 91° (E) 2,631 6.2 -25.0°
